Showing default

SKYSAT C4, 41771

Orbit data source: Space-Track

SKYSAT C4, 41771 is a payload satellite owned by Terra Bella (US) in SSO that was launched on Fri, 16 Sep 2016 UTC via a VEGA launch vehicle from the French Guiana (FRGUI). Payload-class satellites include a variety of spacecraft equipped with specific instruments for various scientific and technological missions. These include communications satellites like Starlink; space stations such as the ISS; scientific satellites like the Hubble; Earth observation satellites from companies like Planet Labs, Umbra, and HawkEye 360; GPS; miniature CubeSats for education and research; and military/defense satellites.

Loading next visibility...
Identifier
41771, 2016-058B
Orbit
SSO
Country
Flag of USUS
Related business
Manufacturer
SS/Loral (MDA)
Mission
Operational Commercial Imaging
Bus & Motor
SKYSAT-GEN2, Unknown motor
Mass
110 kg wet, 110 kg dry
Launch date (UTC)
2016-09-16 (10 years ago)
Launch vehicle
VEGA
Launch site
French Guiana (FRGUI)
Object type
Payload
Rocket body
Debris
Shape & HBR
Box, 1.0 m
Radar Cross Section
0.888 m², Medium (>0.1 m² and < 1m²)

Expand to show TLE details & history
Last TLE update: 20 hours ago

TLE from 20 hours ago
0 SKYSAT C4
1 41771U 16058B   26207.60454858  .00017895  00000-0  32321-3 0  9991
2 41771  96.9172 227.7550 0003632 104.6695 255.4960 15.49763473551572
Epoch: 2026-07-26T14:30Z
TLE epoch observation values (Epoch: 2026-07-26T14:30:32.997Z)
Latitude
-0.00005°
Longitude
65.81743°
Altitude
421.181 km
Speed
7.658 km/s
True Right ascension
15h 11m 01s
True Declination
0° 00' 00"
Sunlit
Object was in daylight at epoch
Visualization orbit readout
Latitude
Unknown
Longitude
Unknown
Altitude
Unknown
Speed
Unknown
Apparent Right ascension
Unknown
Apparent Declination
Unknown
Sunlit
N/A
Visualization observer readout
Local Sidereal Time
00:01:32
Azimuth
Unknown
Elevation
Unknown
Doppler factor
Unknown
Orbital elements
Apogee altitude
416.79 km
Perigee altitude
411.856 km
Semi-major axis
6,792.46 km
Eccentricity
0.00036
Inclination
96.9172°
RAAN
227.755°
Arg. of periapsis
104.6695°
True anomaly
255.45571°
Mean anomaly
255.496°
Eccentric anomaly
255.47586°
Mean motion
3.87706 °/min
Orbital period
92.85 mins
BSTAR
0.00032321
Loading maneuver chart data...
Computing Atmospheric mass density...
Loading historical data...
Loading historical data...
Loading historical data...
Loading historical data...
Loading historical data...
Loading historical data...
Loading historical data...

Documentation

Showing up to 5 results
|